This is the latest recevied weather packets stored in our database for station/object KB3KAV. If no packets are shown the sender has not sent any weather packets the latest 10 day(s).
| Time | Temp. | Humidity | Pressure | Rain* | Wind** | Luminosity | Snow |
|---|---|---|---|---|---|---|---|
| 1788129583 | 21.11° C | 94% | 1048.1 hPa | 0 mm | - | 14 W/m² | - |
| 1788128978 | 21.11° C | 93% | 1048.1 hPa | 0 mm | - | 26 W/m² | - |
| 1788128376 | 21.67° C | 93% | 1048.2 hPa | 0 mm | - | 24 W/m² | - |
| 1788127773 | 21.67° C | 93% | 1048.1 hPa | 0 mm | - | 25 W/m² | - |
| 1788127170 | 21.67° C | 93% | 1048.3 hPa | 0 mm | - | 19 W/m² | - |
| 1788126566 | 21.67° C | 93% | 1048.4 hPa | 0 mm | - | 19 W/m² | - |
| 1788125962 | 21.67° C | 92% | 1048 hPa | 0 mm | - | 26 W/m² | - |
| 1788125359 | 21.67° C | 92% | 1048.1 hPa | 0 mm | - | 47 W/m² | - |
| 1788124759 | 22.22° C | 92% | 1048 hPa | 0 mm | - | 35 W/m² | - |
| 1788124156 | 22.22° C | 91% | 1047.9 hPa | 0 mm | - | 35 W/m² | - |
| 1788123552 | 22.78° C | 91% | 1048 hPa | 0 mm | - | 51 W/m² | - |
| 1788122948 | 22.22° C | 91% | 1048 hPa | 0 mm | - | 155 W/m² | - |
| 1788122348 | 22.22° C | 91% | 1048.1 hPa | 0 mm | - | 44 W/m² | - |
| 1788121743 | 22.22° C | 91% | 1048 hPa | 0 mm | - | 66 W/m² | - |
| 1788121140 | 22.22° C | 90% | 1048 hPa | 0 mm | - | 72 W/m² | - |
| 1788120535 | 22.22° C | 90% | 1047.9 hPa | 0 mm | - | 71 W/m² | - |
| 1788119930 | 22.22° C | 90% | 1048.1 hPa | 0 mm | - | 58 W/m² | - |
| 1788119328 | 22.22° C | 90% | 1048.1 hPa | 0 mm | - | 40 W/m² | - |
| 1788118723 | 22.78° C | 88% | 1048.6 hPa | 0 mm | - | 35 W/m² | - |
| 1788118119 | 23.33° C | 87% | 1048.4 hPa | 0 mm | - | 52 W/m² | - |
| 1788117514 | 23.89° C | 84% | 1048.5 hPa | 0 mm | - | 72 W/m² | - |
| 1788116910 | 24.44° C | 78% | 1048.5 hPa | 0 mm | - | 80 W/m² | - |
| 1788116308 | 24.44° C | 77% | 1048.6 hPa | 0 mm | - | 149 W/m² | - |
| 1788115705 | 25° C | 75% | 1048.9 hPa | 0 mm | - | 184 W/m² | - |
| 1788115105 | 25° C | 74% | 1048.8 hPa | 0 mm | - | 245 W/m² | - |
* Rain latest hour (hover to see other rain measurements)
** Current wind speed in m/s (hover to see current wind gust speed)